Find Starlink 5120

NORAD ID: 53982 Int'l Des: 2022-125 Owner: SPXS Country: US Constellation: starlink operational
LEOCIRCULAR

リアルタイム位置

3D地球を読み込み中...

Starlink 5120について

説明を読み込み中...

次回通過

Passes for default location (London). Set your location on the main map for personalized predictions.

高度履歴

Loading altitude history...

軌道要素

1 53982U 22125U 26122.95105418 -.00000378 00000-0 -56665-5 0 9998
2 53982 53.2191 330.5702 0001432 96.1782 263.9373 15.08837544197648
Epoch: May 2, 2026 • Age: 5 hours

現在のステータス

高度 543.4 km
速度 7.60 km/s
衛星直下点 44.21°N, 179.67°W
打ち上げ日 Oct 5, 2022
運用期間 3.5 years
タイプ internet

技術仕様

分類 Payload
質量 305.00 kg
乾燥質量 290.00 kg
総質量 305.00 kg
長さ 0.20 m
直径 2.80 m
スパン 9.00 m
形状 Box + pan
製造者 SPXS
バスタイプ Starlink
フェーズステータス In Orbit
所有者/国 SPXS/US

Most Searched